Find Starlink 5926

NORAD ID: 55944 Int'l Des: 2023-037 Owner: SPXS Country: US Constellation: starlink operational
LEOCIRCULAR

Live Position

Loading 3D Globe...

About Starlink 5926

Description loading...

Upcoming Passes

Passes for default location (London). Set your location on the main map for personalized predictions.

Altitude History

Loading altitude history...

Two-Line Element Set

1 55944U 23037AG 26106.94434933 .00001195 00000-0 10794-3 0 9996
2 55944 70.0014 187.8677 0003520 274.1033 85.9723 14.98324421169711
Epoch: Apr 16, 2026 • Age: 9 hours

Current Status

Altitude 586.7 km
Velocity 7.57 km/s
Sub-Earth Point -43.83°S, 66.5°E
Launch Date Mar 17, 2023
Age 3 years
Type internet

Technical Details

Classification Payload
Mass 305.00 kg
Dry Mass 290.00 kg
Total Mass 305.00 kg
Length 0.20 m
Diameter 2.80 m
Span 9.00 m
Shape Box + pan
Manufacturer SPXS
Bus Type Starlink
Phase Status In Orbit
Owner/State SPXS/US

Most Searched